Time,TemperatureF,DewpointF,PressureIn,WindDirection,WindDirectionDegrees,WindSpeedMPH,WindSpeedGustMPH,Humidity,HourlyPrecipIn,Conditions,Clouds,dailyrainin,SoftwareType,DateUTC
2013-02-02 00:00:00,23.5,-11.6,29.94,WSW,246,2.7,3.1,20,0.00,,BKN110,0.63,VWS V14.00,2013-02-02 05:00:00,
2013-02-02 00:01:00,23.7,-11.5,29.94,WSW,246,0.0,0.0,20,0.00,,CLR,0.00,VWS V14.00,2013-02-02 05:01:00,
2013-02-02 00:06:00,23.9,-11.3,29.94,West,268,3.1,4.0,20,0.00,,CLR,0.00,VWS V14.00,2013-02-02 05:06:00,
2013-02-02 00:11:00,24.1,-14.4,29.94,West,260,3.6,4.0,17,0.00,,CLR,0.00,VWS V14.00,2013-02-02 05:11:00,
2013-02-02 00:16:00,24.3,-14.3,29.94,WNW,285,3.1,3.6,17,0.00,,CLR,0.00,VWS V14.00,2013-02-02 05:16:00,
2013-02-02 00:21:00,24.6,-14.0,29.94,West,267,2.7,3.1,17,0.00,,CLR,0.00,VWS V14.00,2013-02-02 05:21:00,
2013-02-02 00:26:00,24.6,-14.0,29.94,West,263,2.7,2.7,17,0.00,,CLR,0.00,VWS V14.00,2013-02-02 05:26:00,
2013-02-02 00:31:00,24.6,-14.0,29.94,WSW,238,4.0,5.8,17,0.00,,CLR,0.00,VWS V14.00,2013-02-02 05:31:00,
2013-02-02 00:36:00,24.6,-14.0,29.94,West,264,3.1,4.0,17,0.00,,CLR,0.00,VWS V14.00,2013-02-02 05:36:00,
2013-02-02 00:41:00,24.4,-14.1,29.94,West,271,0.0,2.7,17,0.00,,CLR,0.00,VWS V14.00,2013-02-02 05:41:00,
2013-02-02 00:46:00,24.3,-14.3,29.94,West,272,0.0,3.1,17,0.00,,CLR,0.00,VWS V14.00,2013-02-02 05:46:00,
2013-02-02 00:51:00,24.4,-14.1,29.94,WSW,255,0.0,0.0,17,0.00,,CLR,0.00,VWS V14.00,2013-02-02 05:51:00,
2013-02-02 00:56:00,24.6,-14.0,29.94,WNW,286,0.0,3.1,17,0.00,,CLR,0.00,VWS V14.00,2013-02-02 05:56:00,
2013-02-02 01:01:00,24.4,-14.1,29.94,West,269,3.1,4.0,17,0.00,,CLR,0.00,VWS V14.00,2013-02-02 06:01:00,
2013-02-02 01:06:00,24.3,-14.3,29.97,WSW,253,0.0,0.0,17,0.00,,CLR,0.00,VWS V14.00,2013-02-02 06:06:00,
2013-02-02 01:11:00,24.4,-14.1,29.97,West,260,2.7,3.6,17,0.00,,CLR,0.00,VWS V14.00,2013-02-02 06:11:00,
2013-02-02 01:16:00,24.6,-14.0,29.97,WSW,252,2.7,2.7,17,0.00,,CLR,0.00,VWS V14.00,2013-02-02 06:16:00,
2013-02-02 01:21:00,24.6,-14.0,29.97,West,259,0.0,0.0,17,0.00,,CLR,0.00,VWS V14.00,2013-02-02 06:21:00,
2013-02-02 01:26:00,24.4,-14.1,29.97,West,259,0.0,0.0,17,0.00,,CLR,0.00,VWS V14.00,2013-02-02 06:26:00,
2013-02-02 01:31:00,24.4,-14.1,29.97,WSW,249,3.6,4.5,17,0.00,,CLR,0.00,VWS V14.00,2013-02-02 06:31:00,
2013-02-02 01:36:00,24.6,-14.0,29.97,West,271,4.5,6.9,17,0.00,,CLR,0.00,VWS V14.00,2013-02-02 06:36:00,
2013-02-02 01:41:00,24.6,-14.0,29.97,West,271,0.0,0.0,17,0.00,,CLR,0.00,VWS V14.00,2013-02-02 06:41:00,
2013-02-02 01:46:00,24.6,-14.0,29.97,West,260,0.0,0.0,17,0.00,,CLR,0.00,VWS V14.00,2013-02-02 06:46:00,
2013-02-02 01:51:00,24.6,-14.0,29.97,West,260,0.0,0.0,17,0.00,,CLR,0.00,VWS V14.00,2013-02-02 06:51:00,
2013-02-02 01:56:00,24.6,-14.0,29.97,West,260,0.0,0.0,17,0.00,,CLR,0.00,VWS V14.00,2013-02-02 06:56:00,
2013-02-02 02:01:00,24.3,-14.3,29.97,WNW,285,2.7,3.6,17,0.00,,CLR,0.00,VWS V14.00,2013-02-02 07:01:00,
2013-02-02 02:06:00,24.3,-14.3,29.97,West,268,0.0,0.0,17,0.00,,CLR,0.00,VWS V14.00,2013-02-02 07:06:00,
2013-02-02 02:11:00,24.3,-14.3,29.97,WSW,254,0.0,0.0,17,0.00,,CLR,0.00,VWS V14.00,2013-02-02 07:11:00,
2013-02-02 02:16:00,24.4,-14.1,29.97,WSW,253,0.0,0.0,17,0.00,,CLR,0.00,VWS V14.00,2013-02-02 07:16:00,
2013-02-02 02:21:00,24.3,-14.3,29.97,WSW,253,0.0,0.0,17,0.00,,CLR,0.00,VWS V14.00,2013-02-02 07:21:00,
2013-02-02 02:26:00,23.9,-14.6,29.97,WSW,253,0.0,0.0,17,0.00,,CLR,0.00,VWS V14.00,2013-02-02 07:26:00,
2013-02-02 02:31:00,23.7,-14.7,29.97,WSW,253,0.0,0.0,17,0.00,,CLR,0.00,VWS V14.00,2013-02-02 07:31:00,
2013-02-02 02:36:00,23.7,-14.7,29.97,WSW,253,0.0,0.0,17,0.00,,CLR,0.00,VWS V14.00,2013-02-02 07:36:00,
2013-02-02 02:41:00,23.7,-11.5,29.97,WSW,253,0.0,0.0,20,0.00,,CLR,0.00,VWS V14.00,2013-02-02 07:41:00,
2013-02-02 02:46:00,23.7,-11.5,29.97,WSW,253,0.0,0.0,20,0.00,,CLR,0.00,VWS V14.00,2013-02-02 07:46:00,
2013-02-02 02:51:00,23.2,-11.9,29.97,SW,229,0.0,0.0,20,0.00,,CLR,0.00,VWS V14.00,2013-02-02 07:51:00,
2013-02-02 02:56:00,23.0,-12.1,29.97,WSW,245,0.0,2.7,20,0.00,,CLR,0.00,VWS V14.00,2013-02-02 07:56:00,
2013-02-02 03:01:00,23.0,-12.1,29.97,WSW,245,0.0,0.0,20,0.00,,CLR,0.00,VWS V14.00,2013-02-02 08:01:00,
2013-02-02 03:06:00,23.0,-12.1,30.00,West,263,0.0,2.7,20,0.00,,CLR,0.00,VWS V14.00,2013-02-02 08:06:00,
2013-02-02 03:11:00,23.2,-11.9,30.00,West,259,0.0,2.7,20,0.00,,CLR,0.00,VWS V14.00,2013-02-02 08:11:00,
2013-02-02 03:16:00,23.2,-11.9,30.00,West,259,0.0,0.0,20,0.00,,CLR,0.00,VWS V14.00,2013-02-02 08:16:00,
2013-02-02 03:21:00,23.2,-11.9,30.00,West,259,0.0,0.0,20,0.00,,CLR,0.00,VWS V14.00,2013-02-02 08:21:00,
2013-02-02 03:26:00,22.8,-10.3,30.00,West,259,0.0,0.0,22,0.00,,CLR,0.00,VWS V14.00,2013-02-02 08:26:00,
2013-02-02 03:31:00,22.6,-10.5,30.00,West,259,0.0,0.0,22,0.00,,CLR,0.00,VWS V14.00,2013-02-02 08:31:00,
2013-02-02 03:36:00,22.3,-10.8,30.00,NW,322,0.0,0.0,22,0.00,,CLR,0.00,VWS V14.00,2013-02-02 08:36:00,
2013-02-02 03:41:00,22.1,-10.9,30.00,WNW,294,2.7,3.1,22,0.00,,CLR,0.00,VWS V14.00,2013-02-02 08:41:00,
2013-02-02 03:46:00,22.3,-10.8,30.00,WNW,293,0.0,2.7,22,0.00,,CLR,0.00,VWS V14.00,2013-02-02 08:46:00,
2013-02-02 03:51:00,22.5,-10.6,30.00,NW,305,2.7,3.1,22,0.00,,CLR,0.00,VWS V14.00,2013-02-02 08:51:00,
2013-02-02 03:56:00,22.5,-10.6,30.00,West,272,0.0,0.0,22,0.00,,CLR,0.00,VWS V14.00,2013-02-02 08:56:00,
2013-02-02 04:01:00,22.6,-10.5,30.00,West,272,0.0,0.0,22,0.00,,CLR,0.00,VWS V14.00,2013-02-02 09:01:00,
2013-02-02 04:06:00,22.6,-10.5,30.00,West,272,0.0,0.0,22,0.00,,CLR,0.00,VWS V14.00,2013-02-02 09:06:00,
2013-02-02 04:11:00,22.3,-10.8,30.00,West,272,0.0,0.0,22,0.00,,CLR,0.00,VWS V14.00,2013-02-02 09:11:00,
2013-02-02 04:17:00,22.1,-8.3,30.00,West,268,3.1,3.1,25,0.00,,CLR,0.00,VWS V14.00,2013-02-02 09:17:00,
2013-02-02 04:22:00,22.3,-8.2,30.00,WSW,257,2.7,4.0,25,0.00,,CLR,0.00,VWS V14.00,2013-02-02 09:22:00,
2013-02-02 04:27:00,22.3,-8.2,30.00,WSW,255,2.7,3.1,25,0.00,,CLR,0.00,VWS V14.00,2013-02-02 09:27:00,
2013-02-02 04:32:00,22.3,-8.2,30.00,West,262,0.0,2.7,25,0.00,,CLR,0.00,VWS V14.00,2013-02-02 09:32:00,
2013-02-02 04:37:00,22.3,-8.2,30.00,WNW,286,0.0,0.0,25,0.00,,CLR,0.00,VWS V14.00,2013-02-02 09:37:00,
2013-02-02 04:42:00,22.1,-8.3,30.00,WNW,285,0.0,0.0,25,0.00,,CLR,0.00,VWS V14.00,2013-02-02 09:42:00,
2013-02-02 04:47:00,21.7,-7.1,30.00,West,270,0.0,0.0,27,0.00,,CLR,0.00,VWS V14.00,2013-02-02 09:47:00,
2013-02-02 04:52:00,21.6,-3.7,30.00,West,270,0.0,0.0,32,0.00,,CLR,0.00,VWS V14.00,2013-02-02 09:52:00,
2013-02-02 04:57:00,21.6,-3.1,30.00,West,270,0.0,3.1,33,0.00,,CLR,0.00,VWS V14.00,2013-02-02 09:57:00,
2013-02-02 05:02:00,21.6,-3.1,30.00,West,266,0.0,2.7,33,0.00,,CLR,0.00,VWS V14.00,2013-02-02 10:02:00,
2013-02-02 05:07:00,21.4,-2.6,30.00,West,266,0.0,3.1,34,0.00,,CLR,0.00,VWS V14.00,2013-02-02 10:07:00,
2013-02-02 05:12:00,20.8,-3.1,30.00,West,266,0.0,0.0,34,0.00,,CLR,0.00,VWS V14.00,2013-02-02 10:12:00,
2013-02-02 05:17:00,20.7,-2.7,30.00,West,266,0.0,0.0,35,0.00,,CLR,0.00,VWS V14.00,2013-02-02 10:17:00,
2013-02-02 05:22:00,20.7,-2.1,30.03,WNW,293,0.0,0.0,36,0.00,,CLR,0.00,VWS V14.00,2013-02-02 10:22:00,
2013-02-02 05:27:00,20.7,-2.1,30.03,WNW,293,0.0,0.0,36,0.00,,CLR,0.00,VWS V14.00,2013-02-02 10:27:00,
2013-02-02 05:32:00,20.5,-2.2,30.03,WNW,293,0.0,0.0,36,0.00,,CLR,0.00,VWS V14.00,2013-02-02 10:32:00,
2013-02-02 05:37:00,20.5,-1.6,30.03,WNW,292,0.0,0.0,37,0.00,,CLR,0.00,VWS V14.00,2013-02-02 10:37:00,
2013-02-02 05:42:00,20.3,-1.8,30.03,NW,306,0.0,2.7,37,0.00,,CLR,0.00,VWS V14.00,2013-02-02 10:42:00,
2013-02-02 05:47:00,20.1,-2.0,30.03,NW,306,0.0,0.0,37,0.00,,CLR,0.00,VWS V14.00,2013-02-02 10:47:00,
2013-02-02 05:52:00,19.8,-2.3,30.03,NW,306,0.0,0.0,37,0.00,,CLR,0.00,VWS V14.00,2013-02-02 10:52:00,
2013-02-02 05:57:00,19.8,-1.7,30.03,NW,306,0.0,0.0,38,0.00,,CLR,0.00,VWS V14.00,2013-02-02 10:57:00,
2013-02-02 06:02:00,19.6,-1.9,30.03,NW,306,0.0,0.0,38,0.00,,CLR,0.00,VWS V14.00,2013-02-02 11:02:00,
2013-02-02 06:07:00,19.4,-2.0,30.00,NW,306,0.0,0.0,38,0.00,,CLR,0.00,VWS V14.00,2013-02-02 11:07:00,
2013-02-02 06:12:00,19.0,-1.8,30.00,NW,306,0.0,0.0,39,0.00,,CLR,0.00,VWS V14.00,2013-02-02 11:12:00,
2013-02-02 06:17:00,18.9,-1.5,30.00,NW,306,0.0,0.0,40,0.00,,CLR,0.00,VWS V14.00,2013-02-02 11:17:00,
2013-02-02 06:22:00,18.7,-0.6,30.03,NW,306,0.0,0.0,42,0.00,,CLR,0.00,VWS V14.00,2013-02-02 11:22:00,
2013-02-02 06:27:00,18.5,-0.3,30.03,NW,306,0.0,0.0,43,0.00,,CLR,0.00,VWS V14.00,2013-02-02 11:27:00,
2013-02-02 06:32:00,18.3,0.1,30.03,NW,306,0.0,0.0,44,0.00,,CLR,0.00,VWS V14.00,2013-02-02 11:32:00,
2013-02-02 06:37:00,18.3,0.1,30.03,NW,306,0.0,0.0,44,0.00,,CLR,0.00,VWS V14.00,2013-02-02 11:37:00,
2013-02-02 06:42:00,18.3,0.1,30.03,NW,306,0.0,0.0,44,0.00,,CLR,0.00,VWS V14.00,2013-02-02 11:42:00,
2013-02-02 06:47:00,18.1,-0.1,30.03,NW,306,0.0,0.0,44,0.00,,CLR,0.00,VWS V14.00,2013-02-02 11:47:00,
2013-02-02 06:52:00,18.1,-0.1,30.03,NW,306,0.0,0.0,44,0.00,,CLR,0.00,VWS V14.00,2013-02-02 11:52:00,
2013-02-02 06:57:00,18.3,0.1,30.03,NW,306,0.0,0.0,44,0.00,,CLR,0.00,VWS V14.00,2013-02-02 11:57:00,
2013-02-02 07:02:00,18.1,-0.1,30.03,NW,306,0.0,0.0,44,0.00,,CLR,0.00,VWS V14.00,2013-02-02 12:02:00,
2013-02-02 07:07:00,18.1,-0.1,30.03,NW,306,0.0,0.0,44,0.00,,CLR,0.00,VWS V14.00,2013-02-02 12:07:00,
2013-02-02 07:12:00,17.8,-0.4,30.03,NW,306,0.0,0.0,44,0.00,,CLR,0.00,VWS V14.00,2013-02-02 12:12:00,
2013-02-02 07:17:00,17.6,-0.1,30.03,NW,306,0.0,0.0,45,0.00,,CLR,0.00,VWS V14.00,2013-02-02 12:17:00,
2013-02-02 07:22:00,17.8,0.1,30.03,NW,306,0.0,0.0,45,0.00,,CLR,0.00,VWS V14.00,2013-02-02 12:22:00,
2013-02-02 07:27:00,18.0,0.2,30.03,NW,306,0.0,0.0,45,0.00,,CLR,0.00,VWS V14.00,2013-02-02 12:27:00,
2013-02-02 07:32:00,18.0,0.7,30.03,NW,306,0.0,0.0,46,0.00,,CLR,0.00,VWS V14.00,2013-02-02 12:32:00,
2013-02-02 07:37:00,18.1,0.9,30.03,NW,306,0.0,0.0,46,0.00,,CLR,0.00,VWS V14.00,2013-02-02 12:37:00,
2013-02-02 07:42:00,18.3,1.0,30.03,NW,305,0.0,0.0,46,0.00,,CLR,0.00,VWS V14.00,2013-02-02 12:42:00,
2013-02-02 07:47:00,18.5,1.2,30.03,NW,306,0.0,0.0,46,0.00,,CLR,0.00,VWS V14.00,2013-02-02 12:47:00,
2013-02-02 07:52:00,18.5,0.7,30.06,NW,306,0.0,0.0,45,0.00,,CLR,0.00,VWS V14.00,2013-02-02 12:52:00,
2013-02-02 07:57:00,18.5,1.2,30.06,NW,306,0.0,0.0,46,0.00,,CLR,0.00,VWS V14.00,2013-02-02 12:57:00,
2013-02-02 08:02:00,18.9,1.5,30.06,ESE,103,0.0,0.0,46,0.00,,CLR,0.00,VWS V14.00,2013-02-02 13:02:00,
2013-02-02 08:07:00,19.4,2.0,30.06,East,100,0.0,0.0,46,0.00,,CLR,0.00,VWS V14.00,2013-02-02 13:07:00,
2013-02-02 08:12:00,19.9,2.0,30.06,ESE,104,0.0,2.7,45,0.00,,CLR,0.00,VWS V14.00,2013-02-02 13:12:00,
2013-02-02 08:17:00,20.5,2.0,30.06,NW,312,0.0,0.0,44,0.00,,CLR,0.00,VWS V14.00,2013-02-02 13:17:00,
2013-02-02 08:22:00,20.8,2.4,30.06,SW,228,0.0,0.0,44,0.00,,CLR,0.00,VWS V14.00,2013-02-02 13:22:00,
2013-02-02 08:27:00,21.4,2.4,30.06,SSE,167,0.0,0.0,43,0.00,,CLR,0.00,VWS V14.00,2013-02-02 13:27:00,
2013-02-02 08:32:00,21.7,2.7,30.06,WSW,250,0.0,0.0,43,0.00,,CLR,0.00,VWS V14.00,2013-02-02 13:32:00,
2013-02-02 08:37:00,21.9,2.4,30.06,WSW,249,0.0,0.0,42,0.00,,CLR,0.00,VWS V14.00,2013-02-02 13:37:00,
2013-02-02 08:42:00,22.1,0.9,30.06,SW,217,3.6,4.5,39,0.00,,CLR,0.00,VWS V14.00,2013-02-02 13:42:00,
2013-02-02 08:47:00,22.5,0.7,30.06,SSE,168,0.0,4.5,38,0.00,,CLR,0.00,VWS V14.00,2013-02-02 13:47:00,
2013-02-02 08:52:00,22.8,0.5,30.06,WSW,239,3.6,3.6,37,0.00,,CLR,0.00,VWS V14.00,2013-02-02 13:52:00,
2013-02-02 08:57:00,23.0,0.6,30.06,WNW,286,5.4,5.8,37,0.00,,CLR,0.00,VWS V14.00,2013-02-02 13:57:00,
2013-02-02 09:02:00,23.2,0.2,30.06,West,266,4.0,4.0,36,0.00,,CLR,0.00,VWS V14.00,2013-02-02 14:02:00,
2013-02-02 09:07:00,23.4,-0.2,30.06,West,274,4.5,6.3,35,0.00,,CLR,0.00,VWS V14.00,2013-02-02 14:07:00,
2013-02-02 09:12:00,23.7,0.1,30.06,West,267,3.6,4.0,35,0.00,,CLR,0.00,VWS V14.00,2013-02-02 14:12:00,
2013-02-02 09:17:00,23.9,-0.4,30.06,NW,317,3.1,3.1,34,0.00,,CLR,0.00,VWS V14.00,2013-02-02 14:17:00,
2013-02-02 09:22:00,24.1,-0.9,30.03,SW,234,3.6,4.9,33,0.00,,CLR,0.00,VWS V14.00,2013-02-02 14:22:00,
2013-02-02 09:27:00,24.3,-0.7,30.03,West,272,0.0,4.9,33,0.00,,CLR,0.00,VWS V14.00,2013-02-02 14:27:00,
2013-02-02 09:32:00,24.6,-0.4,30.03,WNW,285,3.6,5.8,33,0.00,,CLR,0.00,VWS V14.00,2013-02-02 14:32:00,
2013-02-02 09:37:00,24.6,-0.4,30.03,WSW,250,3.1,4.9,33,0.00,,CLR,0.00,VWS V14.00,2013-02-02 14:37:00,
2013-02-02 09:42:00,24.8,-0.2,30.03,WSW,258,3.6,4.9,33,0.00,,CLR,0.00,VWS V14.00,2013-02-02 14:42:00,
2013-02-02 09:47:00,25.0,-0.7,30.03,WSW,255,6.3,6.7,32,0.00,,CLR,0.00,VWS V14.00,2013-02-02 14:47:00,
2013-02-02 09:52:00,25.0,-0.7,30.03,WNW,288,0.0,4.9,32,0.00,,CLR,0.00,VWS V14.00,2013-02-02 14:52:00,
2013-02-02 09:57:00,25.3,-0.4,30.03,West,280,4.5,5.8,32,0.00,,CLR,0.00,VWS V14.00,2013-02-02 14:57:00,
2013-02-02 10:02:00,25.3,-0.4,30.03,WSW,246,3.1,4.9,32,0.00,,CLR,0.00,VWS V14.00,2013-02-02 15:02:00,
2013-02-02 10:07:00,25.7,-2.2,30.03,West,268,2.7,4.5,29,0.00,,CLR,0.00,VWS V14.00,2013-02-02 15:07:00,
2013-02-02 10:12:00,25.9,-2.0,30.03,WNW,297,0.0,5.4,29,0.00,,CLR,0.00,VWS V14.00,2013-02-02 15:12:00,
2013-02-02 10:17:00,26.2,-1.7,30.03,West,273,2.7,3.6,29,0.00,,CLR,0.00,VWS V14.00,2013-02-02 15:17:00,
2013-02-02 10:22:00,26.4,-3.8,30.03,West,261,5.8,5.8,26,0.00,,CLR,0.00,VWS V14.00,2013-02-02 15:22:00,
2013-02-02 10:27:00,26.4,-3.8,30.03,West,261,3.1,3.1,26,0.00,,CLR,0.00,VWS V14.00,2013-02-02 15:27:00,
2013-02-02 10:32:00,26.6,-5.3,30.03,West,266,4.5,5.8,24,0.00,,CLR,0.00,VWS V14.00,2013-02-02 15:32:00,
2013-02-02 10:37:00,26.8,-5.2,30.03,WSW,243,7.8,7.8,24,0.00,,CLR,0.00,VWS V14.00,2013-02-02 15:37:00,
2013-02-02 10:42:00,27.0,-5.0,30.03,SW,229,4.5,4.5,24,0.00,,CLR,0.00,VWS V14.00,2013-02-02 15:42:00,
2013-02-02 10:47:00,27.3,-4.7,30.03,SE,143,2.7,4.0,24,0.00,,CLR,0.00,VWS V14.00,2013-02-02 15:47:00,
2013-02-02 10:52:00,27.9,-5.1,30.00,SW,232,4.0,6.7,23,0.00,,CLR,0.00,VWS V14.00,2013-02-02 15:52:00,
2013-02-02 10:57:00,28.0,-6.8,30.00,WSW,251,5.4,5.8,21,0.00,,CLR,0.00,VWS V14.00,2013-02-02 15:57:00,
2013-02-02 11:02:00,27.9,-7.0,30.00,SSE,162,3.6,3.6,21,0.00,,CLR,0.00,VWS V14.00,2013-02-02 16:02:00,
2013-02-02 11:07:00,28.2,-6.7,30.00,ESE,113,0.0,4.9,21,0.00,,CLR,0.00,VWS V14.00,2013-02-02 16:07:00,
2013-02-02 11:12:00,28.6,-6.4,30.00,SE,141,3.6,4.0,21,0.00,,CLR,0.00,VWS V14.00,2013-02-02 16:12:00,
2013-02-02 11:17:00,28.8,-6.2,30.00,SSE,150,3.1,4.5,21,0.00,,CLR,0.00,VWS V14.00,2013-02-02 16:17:00,
2013-02-02 11:22:00,29.1,-9.1,30.00,SE,132,4.0,4.0,18,0.00,,CLR,0.00,VWS V14.00,2013-02-02 16:22:00,
2013-02-02 11:27:00,29.3,-8.9,30.00,SW,236,5.8,5.8,18,0.00,,CLR,0.00,VWS V14.00,2013-02-02 16:27:00,
2013-02-02 11:32:00,29.3,-8.9,30.00,West,260,4.9,5.8,18,0.00,,CLR,0.00,VWS V14.00,2013-02-02 16:32:00,
2013-02-02 11:37:00,29.5,-8.8,30.00,West,259,7.4,7.4,18,0.00,,CLR,0.00,VWS V14.00,2013-02-02 16:37:00,
2013-02-02 11:42:00,29.7,-8.6,30.00,WSW,241,3.6,7.4,18,0.00,,CLR,0.00,VWS V14.00,2013-02-02 16:42:00,
2013-02-02 11:47:00,29.8,-8.5,30.00,SW,225,3.1,8.7,18,0.00,,CLR,0.00,VWS V14.00,2013-02-02 16:47:00,
2013-02-02 11:52:00,30.0,-12.0,30.00,SW,224,4.0,4.9,15,0.00,,CLR,0.00,VWS V14.00,2013-02-02 16:52:00,
2013-02-02 11:57:00,30.2,-11.9,30.00,WSW,238,2.7,5.4,15,0.00,,CLR,0.00,VWS V14.00,2013-02-02 16:57:00,
2013-02-02 12:02:00,30.4,-11.7,30.00,SSW,213,4.0,4.5,15,0.00,,CLR,0.00,VWS V14.00,2013-02-02 17:02:00,
2013-02-02 12:07:00,30.7,-11.4,29.97,SSE,161,4.5,4.9,15,0.00,,CLR,0.00,VWS V14.00,2013-02-02 17:07:00,
2013-02-02 12:12:00,31.3,-11.0,29.97,WSW,249,6.9,6.9,15,0.00,,CLR,0.00,VWS V14.00,2013-02-02 17:12:00,
2013-02-02 12:17:00,31.3,-11.0,29.97,SSE,154,5.8,5.8,15,0.00,,CLR,0.00,VWS V14.00,2013-02-02 17:17:00,
2013-02-02 12:22:00,31.5,-10.9,29.94,SE,137,4.0,6.7,15,0.00,,CLR,0.00,VWS V14.00,2013-02-02 17:22:00,
2013-02-02 12:27:00,31.5,-10.9,29.94,South,174,5.4,6.7,15,0.00,,CLR,0.00,VWS V14.00,2013-02-02 17:27:00,
2013-02-02 12:32:00,31.5,-10.9,29.94,SSE,158,3.6,6.7,15,0.00,,CLR,0.00,VWS V14.00,2013-02-02 17:32:00,
2013-02-02 12:37:00,31.6,-10.7,29.94,South,178,4.0,5.4,15,0.00,,CLR,0.00,VWS V14.00,2013-02-02 17:37:00,
2013-02-02 12:42:00,31.8,-10.6,29.94,SSW,207,4.0,6.9,15,0.00,,CLR,0.00,VWS V14.00,2013-02-02 17:42:00,
2013-02-02 12:47:00,31.6,-10.7,29.94,SSE,164,3.1,6.9,15,0.00,,CLR,0.00,VWS V14.00,2013-02-02 17:47:00,
2013-02-02 12:52:00,31.6,-10.7,29.94,SSW,193,4.9,6.9,15,0.00,,CLR,0.00,VWS V14.00,2013-02-02 17:52:00,
2013-02-02 12:57:00,31.8,-10.6,29.94,SE,125,3.1,6.7,15,0.00,,CLR,0.00,VWS V14.00,2013-02-02 17:57:00,
2013-02-02 13:02:00,32.0,-10.4,29.94,South,178,3.1,6.3,15,0.00,,CLR,0.00,VWS V14.00,2013-02-02 18:02:00,
2013-02-02 13:07:00,32.0,-10.4,29.94,SW,215,4.0,7.4,15,0.00,,CLR,0.00,VWS V14.00,2013-02-02 18:07:00,
2013-02-02 13:12:00,32.2,-10.3,29.94,East,97,4.0,6.7,15,0.04,,CLR,0.04,VWS V14.00,2013-02-02 18:12:00,
2013-02-02 13:17:00,32.7,-9.8,29.94,South,176,4.5,6.9,15,0.04,,CLR,0.04,VWS V14.00,2013-02-02 18:17:00,
2013-02-02 13:22:00,32.9,-9.7,29.91,SSE,159,4.5,8.7,15,0.04,,CLR,0.04,VWS V14.00,2013-02-02 18:22:00,
2013-02-02 13:27:00,32.9,-9.7,29.91,WSW,242,8.7,8.7,15,0.04,,CLR,0.04,VWS V14.00,2013-02-02 18:27:00,
2013-02-02 13:32:00,32.7,-9.8,29.91,South,176,4.9,6.3,15,0.04,,CLR,0.04,VWS V14.00,2013-02-02 18:32:00,
2013-02-02 13:37:00,32.5,-10.0,29.94,SE,127,4.5,5.4,15,0.04,,CLR,0.04,VWS V14.00,2013-02-02 18:37:00,
2013-02-02 13:42:00,32.7,-9.8,29.94,SE,127,4.5,5.8,15,0.04,,CLR,0.04,VWS V14.00,2013-02-02 18:42:00,
2013-02-02 13:47:00,32.5,-10.0,29.94,SW,218,4.9,6.3,15,0.04,,CLR,0.04,VWS V14.00,2013-02-02 18:47:00,
2013-02-02 13:52:00,32.7,-9.8,29.91,WSW,250,10.5,10.5,15,0.04,,CLR,0.04,VWS V14.00,2013-02-02 18:52:00,
2013-02-02 13:57:00,32.4,-10.1,29.91,SW,236,8.3,10.1,15,0.04,,CLR,0.04,VWS V14.00,2013-02-02 18:57:00,
2013-02-02 14:02:00,32.0,-10.4,29.91,WSW,250,6.3,10.1,15,0.04,,CLR,0.04,VWS V14.00,2013-02-02 19:02:00,
2013-02-02 14:07:00,31.6,-13.6,29.91,WSW,252,6.9,11.2,13,0.04,,CLR,0.04,VWS V14.00,2013-02-02 19:07:00,
2013-02-02 14:12:00,31.5,-13.7,29.91,WSW,247,15.4,15.4,13,0.04,,CLR,0.04,VWS V14.00,2013-02-02 19:12:00,
2013-02-02 14:17:00,31.3,-13.9,29.91,WSW,255,6.7,8.7,13,0.00,,CLR,0.04,VWS V14.00,2013-02-02 19:17:00,
2013-02-02 14:22:00,31.1,-14.0,29.91,WSW,247,4.5,7.8,13,0.00,,CLR,0.04,VWS V14.00,2013-02-02 19:22:00,
2013-02-02 14:27:00,31.3,-13.9,29.91,WSW,253,8.7,8.7,13,0.00,,CLR,0.04,VWS V14.00,2013-02-02 19:27:00,
2013-02-02 14:32:00,31.5,-13.7,29.91,West,259,8.3,8.7,13,0.00,,CLR,0.04,VWS V14.00,2013-02-02 19:32:00,
2013-02-02 14:37:00,31.3,-13.9,29.88,SSW,210,4.5,8.3,13,0.00,,CLR,0.04,VWS V14.00,2013-02-02 19:37:00,
2013-02-02 14:42:00,31.5,-13.7,29.88,SW,227,6.3,8.3,13,0.00,,CLR,0.04,VWS V14.00,2013-02-02 19:42:00,
2013-02-02 14:47:00,31.3,-13.9,29.88,SE,143,5.4,5.4,13,0.00,,CLR,0.04,VWS V14.00,2013-02-02 19:47:00,
2013-02-02 14:52:00,31.3,-11.0,29.88,WSW,242,5.4,8.3,15,0.00,,CLR,0.04,VWS V14.00,2013-02-02 19:52:00,
2013-02-02 14:57:00,31.1,-14.0,29.88,SE,145,6.3,6.3,13,0.00,,CLR,0.04,VWS V14.00,2013-02-02 19:57:00,
2013-02-02 15:02:00,31.3,-11.0,29.88,SW,216,0.0,5.8,15,0.00,,CLR,0.04,VWS V14.00,2013-02-02 20:02:00,
2013-02-02 15:07:00,31.5,-10.9,29.88,WSW,246,3.6,3.6,15,0.00,,CLR,0.04,VWS V14.00,2013-02-02 20:07:00,
2013-02-02 15:12:00,31.5,-10.9,29.88,WSW,247,4.5,4.5,15,0.00,,CLR,0.04,VWS V14.00,2013-02-02 20:12:00,
2013-02-02 15:17:00,31.3,-11.0,29.88,WSW,238,0.0,3.1,15,0.00,,CLR,0.04,VWS V14.00,2013-02-02 20:17:00,
2013-02-02 15:22:00,31.5,-10.9,29.88,SSE,164,4.9,5.4,15,0.00,,CLR,0.04,VWS V14.00,2013-02-02 20:22:00,
2013-02-02 15:27:00,31.5,-10.9,29.88,South,177,5.4,5.8,15,0.00,,CLR,0.04,VWS V14.00,2013-02-02 20:27:00,
2013-02-02 15:32:00,31.5,-10.9,29.88,SW,230,4.9,6.9,15,0.00,,CLR,0.04,VWS V14.00,2013-02-02 20:32:00,
2013-02-02 15:37:00,31.3,-11.0,29.88,WSW,257,5.8,5.8,15,0.00,,CLR,0.04,VWS V14.00,2013-02-02 20:37:00,
2013-02-02 15:42:00,31.3,-11.0,29.88,WSW,248,6.7,9.6,15,0.00,,CLR,0.04,VWS V14.00,2013-02-02 20:42:00,
2013-02-02 15:47:00,30.9,-11.3,29.88,WSW,250,6.3,7.4,15,0.00,,CLR,0.04,VWS V14.00,2013-02-02 20:47:00,
2013-02-02 15:52:00,30.7,-11.4,29.88,SW,218,4.9,5.8,15,0.00,,CLR,0.04,VWS V14.00,2013-02-02 20:52:00,
2013-02-02 15:57:00,30.4,-11.7,29.88,SW,217,4.5,6.3,15,0.00,,CLR,0.04,VWS V14.00,2013-02-02 20:57:00,
2013-02-02 16:02:00,30.0,-12.0,29.88,SSE,166,5.4,6.3,15,0.00,,CLR,0.04,VWS V14.00,2013-02-02 21:02:00,
2013-02-02 16:07:00,29.8,-12.2,29.88,SW,218,3.6,3.6,15,0.00,,CLR,0.04,VWS V14.00,2013-02-02 21:07:00,
2013-02-02 16:12:00,29.7,-12.3,29.88,WSW,255,4.5,4.9,15,0.00,,CLR,0.04,VWS V14.00,2013-02-02 21:12:00,
2013-02-02 16:17:00,29.7,-12.3,29.88,West,268,5.4,6.9,15,0.00,,CLR,0.04,VWS V14.00,2013-02-02 21:17:00,
2013-02-02 16:22:00,29.5,-12.5,29.85,WSW,242,4.9,4.9,15,0.00,,CLR,0.04,VWS V14.00,2013-02-02 21:22:00,
2013-02-02 16:27:00,29.3,-11.3,29.85,SSE,166,4.0,4.0,16,0.00,,CLR,0.04,VWS V14.00,2013-02-02 21:27:00,
2013-02-02 16:32:00,28.9,-11.6,29.85,SSE,157,3.1,4.0,16,0.00,,CLR,0.04,VWS V14.00,2013-02-02 21:32:00,
2013-02-02 16:37:00,28.8,-11.8,29.88,WSW,237,4.5,4.9,16,0.00,,CLR,0.04,VWS V14.00,2013-02-02 21:37:00,
2013-02-02 16:42:00,28.8,-11.8,29.88,SSE,166,2.7,3.1,16,0.00,,CLR,0.04,VWS V14.00,2013-02-02 21:42:00,
2013-02-02 16:47:00,28.8,-11.8,29.88,SSE,157,3.6,3.6,16,0.00,,CLR,0.04,VWS V14.00,2013-02-02 21:47:00,
2013-02-02 16:52:00,28.6,-11.9,29.85,SE,140,0.0,5.4,16,0.00,,CLR,0.04,VWS V14.00,2013-02-02 21:52:00,
2013-02-02 16:57:00,28.6,-11.9,29.85,SW,236,3.1,3.6,16,0.00,,CLR,0.04,VWS V14.00,2013-02-02 21:57:00,
2013-02-02 17:02:00,28.6,-11.9,29.85,SW,215,6.7,7.4,16,0.00,,CLR,0.04,VWS V14.00,2013-02-02 22:02:00,
2013-02-02 17:07:00,28.6,-11.9,29.85,SSW,205,2.7,4.5,16,0.00,,CLR,0.04,VWS V14.00,2013-02-02 22:07:00,
2013-02-02 17:12:00,28.6,-11.9,29.85,WSW,243,2.7,2.7,16,0.00,,CLR,0.04,VWS V14.00,2013-02-02 22:12:00,
2013-02-02 17:17:00,28.4,-12.1,29.85,WSW,240,0.0,4.0,16,0.00,,CLR,0.04,VWS V14.00,2013-02-02 22:17:00,
2013-02-02 17:22:00,28.2,-12.2,29.85,WSW,240,3.6,4.0,16,0.00,,CLR,0.04,VWS V14.00,2013-02-02 22:22:00,
2013-02-02 17:27:00,28.2,-12.2,29.85,South,184,0.0,3.6,16,0.00,,CLR,0.04,VWS V14.00,2013-02-02 22:27:00,
2013-02-02 17:32:00,28.0,-12.4,29.85,SSW,201,6.3,6.3,16,0.00,,CLR,0.04,VWS V14.00,2013-02-02 22:32:00,
2013-02-02 17:37:00,28.0,-12.4,29.85,SW,236,4.0,4.9,16,0.00,,CLR,0.04,VWS V14.00,2013-02-02 22:37:00,
2013-02-02 17:42:00,28.0,-12.4,29.85,SW,231,4.9,4.9,16,0.00,,CLR,0.04,VWS V14.00,2013-02-02 22:42:00,
2013-02-02 17:48:00,28.0,-12.4,29.85,WSW,240,4.5,5.4,16,0.00,,CLR,0.04,VWS V14.00,2013-02-02 22:48:00,
2013-02-02 17:53:00,28.0,-12.4,29.85,SW,229,4.9,5.4,16,0.00,,CLR,0.04,VWS V14.00,2013-02-02 22:53:00,
2013-02-02 17:58:00,27.9,-12.5,29.85,SW,225,3.6,4.0,16,0.00,,CLR,0.04,VWS V14.00,2013-02-02 22:58:00,
2013-02-02 18:03:00,27.9,-12.5,29.85,South,174,0.0,4.0,16,0.00,,CLR,0.04,VWS V14.00,2013-02-02 23:03:00,
2013-02-02 18:08:00,27.9,-12.5,29.85,WSW,256,3.1,4.0,16,0.00,,CLR,0.04,VWS V14.00,2013-02-02 23:08:00,
2013-02-02 18:13:00,27.7,-12.6,29.85,WSW,247,4.9,5.8,16,0.00,,CLR,0.04,VWS V14.00,2013-02-02 23:13:00,
2013-02-02 18:18:00,27.7,-12.6,29.85,WSW,251,0.0,0.0,16,0.00,,CLR,0.04,VWS V14.00,2013-02-02 23:18:00,
2013-02-02 18:23:00,27.7,-12.6,29.85,SSE,153,0.0,4.5,16,0.00,,CLR,0.04,VWS V14.00,2013-02-02 23:23:00,
2013-02-02 18:28:00,27.9,-12.5,29.85,SW,233,2.7,3.6,16,0.00,,CLR,0.04,VWS V14.00,2013-02-02 23:28:00,
2013-02-02 18:33:00,27.9,-12.5,29.85,SSW,203,0.0,0.0,16,0.00,,CLR,0.04,VWS V14.00,2013-02-02 23:33:00,
2013-02-02 18:38:00,27.9,-12.5,29.85,SW,220,0.0,0.0,16,0.00,,CLR,0.04,VWS V14.00,2013-02-02 23:38:00,
2013-02-02 18:43:00,28.0,-12.4,29.85,South,171,0.0,0.0,16,0.00,,CLR,0.04,VWS V14.00,2013-02-02 23:43:00,
2013-02-02 18:48:00,28.0,-12.4,29.85,SW,221,0.0,0.0,16,0.00,,CLR,0.04,VWS V14.00,2013-02-02 23:48:00,
2013-02-02 18:53:00,28.0,-12.4,29.85,SSW,198,0.0,0.0,16,0.00,,CLR,0.04,VWS V14.00,2013-02-02 23:53:00,
2013-02-02 18:58:00,27.9,-12.5,29.85,South,175,0.0,2.7,16,0.00,,CLR,0.04,VWS V14.00,2013-02-02 23:58:00,
2013-02-02 19:03:00,27.9,-12.5,29.85,WSW,251,2.7,3.1,16,0.00,,CLR,0.04,VWS V14.00,2013-02-03 00:03:00,
2013-02-02 19:08:00,28.0,-12.4,29.85,SW,227,0.0,0.0,16,0.00,,CLR,0.04,VWS V14.00,2013-02-03 00:08:00,
2013-02-02 19:13:00,28.0,-12.4,29.85,SW,227,0.0,0.0,16,0.00,,CLR,0.04,VWS V14.00,2013-02-03 00:13:00,
2013-02-02 19:18:00,28.0,-12.4,29.85,West,262,0.0,0.0,16,0.00,,CLR,0.04,VWS V14.00,2013-02-03 00:18:00,
2013-02-02 19:23:00,28.0,-12.4,29.85,West,262,0.0,0.0,16,0.00,,CLR,0.04,VWS V14.00,2013-02-03 00:23:00,
2013-02-02 19:28:00,28.0,-12.4,29.85,SW,234,3.1,3.6,16,0.00,,CLR,0.04,VWS V14.00,2013-02-03 00:28:00,
2013-02-02 19:33:00,28.2,-12.2,29.85,WSW,241,0.0,3.1,16,0.00,,CLR,0.04,VWS V14.00,2013-02-03 00:33:00,
2013-02-02 19:38:00,28.2,-12.2,29.85,WSW,242,2.7,3.6,16,0.00,,CLR,0.04,VWS V14.00,2013-02-03 00:38:00,
2013-02-02 19:43:00,28.2,-12.2,29.85,West,269,0.0,2.7,16,0.00,,CLR,0.04,VWS V14.00,2013-02-03 00:43:00,
2013-02-02 19:48:00,28.2,-12.2,29.85,WSW,240,3.1,3.6,16,0.00,,CLR,0.04,VWS V14.00,2013-02-03 00:48:00,
2013-02-02 19:53:00,28.0,-12.4,29.85,SW,221,3.1,6.7,16,0.00,,CLR,0.04,VWS V14.00,2013-02-03 00:53:00,
2013-02-02 19:58:00,27.7,-12.6,29.85,West,259,3.6,4.5,16,0.00,,CLR,0.04,VWS V14.00,2013-02-03 00:58:00,
2013-02-02 20:03:00,27.7,-12.6,29.85,SW,232,3.1,4.0,16,0.00,,CLR,0.04,VWS V14.00,2013-02-03 01:03:00,
2013-02-02 20:08:00,27.7,-10.3,29.85,West,269,2.7,2.7,18,0.00,,CLR,0.04,VWS V14.00,2013-02-03 01:08:00,
2013-02-02 20:13:00,27.7,-10.3,29.85,West,271,4.5,7.4,18,0.00,,CLR,0.04,VWS V14.00,2013-02-03 01:13:00,
2013-02-02 20:18:00,27.5,-9.3,29.85,WSW,246,0.0,4.0,19,0.00,,CLR,0.04,VWS V14.00,2013-02-03 01:18:00,
2013-02-02 20:23:00,27.3,-9.5,29.85,West,268,3.6,4.0,19,0.00,,CLR,0.04,VWS V14.00,2013-02-03 01:23:00,
2013-02-02 20:28:00,27.3,-9.5,29.85,West,259,3.1,5.8,19,0.00,,CLR,0.04,VWS V14.00,2013-02-03 01:28:00,
2013-02-02 20:33:00,27.1,-9.6,29.85,SW,221,3.6,5.8,19,0.00,,CLR,0.04,VWS V14.00,2013-02-03 01:33:00,
2013-02-02 20:38:00,27.3,-7.4,29.85,WSW,244,4.9,4.9,21,0.00,,CLR,0.04,VWS V14.00,2013-02-03 01:38:00,
2013-02-02 20:43:00,27.3,-7.4,29.85,West,263,4.0,6.7,21,0.00,,CLR,0.04,VWS V14.00,2013-02-03 01:43:00,
2013-02-02 20:48:00,27.1,-4.8,29.85,WSW,252,6.3,9.2,24,0.00,,CLR,0.04,VWS V14.00,2013-02-03 01:48:00,
2013-02-02 20:53:00,27.1,-3.2,29.85,SW,234,3.6,3.6,26,0.00,,CLR,0.04,VWS V14.00,2013-02-03 01:53:00,
2013-02-02 20:58:00,26.8,0.2,29.85,WSW,255,4.0,5.4,31,0.00,,CLR,0.04,VWS V14.00,2013-02-03 01:58:00,
2013-02-02 21:03:00,26.8,0.9,29.85,West,273,3.1,4.5,32,0.00,,CLR,0.04,VWS V14.00,2013-02-03 02:03:00,
2013-02-02 21:08:00,27.0,1.0,29.88,West,274,2.7,2.7,32,0.00,,CLR,0.04,VWS V14.00,2013-02-03 02:08:00,
2013-02-02 21:13:00,27.0,1.0,29.88,WSW,258,6.9,8.3,32,0.00,,CLR,0.04,VWS V14.00,2013-02-03 02:13:00,
2013-02-02 21:18:00,26.6,1.4,29.88,WNW,284,2.7,4.0,33,0.00,,CLR,0.04,VWS V14.00,2013-02-03 02:18:00,
2013-02-02 21:23:00,26.6,1.4,29.88,West,268,6.7,6.7,33,0.00,,CLR,0.04,VWS V14.00,2013-02-03 02:23:00,
2013-02-02 21:28:00,26.6,2.0,29.88,West,262,5.4,6.3,34,0.00,,CLR,0.04,VWS V14.00,2013-02-03 02:28:00,
2013-02-02 21:33:00,26.4,1.9,29.88,West,274,5.8,5.8,34,0.00,,CLR,0.04,VWS V14.00,2013-02-03 02:33:00,
2013-02-02 21:38:00,26.2,2.3,29.88,WNW,294,6.3,7.8,35,0.00,,CLR,0.04,VWS V14.00,2013-02-03 02:38:00,
2013-02-02 21:43:00,26.2,2.9,29.88,SW,231,5.4,5.8,36,0.00,,CLR,0.04,VWS V14.00,2013-02-03 02:43:00,
2013-02-02 21:48:00,26.1,3.9,29.88,West,271,4.5,5.8,38,0.00,,CLR,0.04,VWS V14.00,2013-02-03 02:48:00,
2013-02-02 21:53:00,25.7,4.2,29.88,WSW,249,4.0,4.9,39,0.00,,CLR,0.04,VWS V14.00,2013-02-03 02:53:00,
2013-02-02 21:58:00,25.9,5.4,29.88,West,266,3.6,4.0,41,0.00,,CLR,0.04,VWS V14.00,2013-02-03 02:58:00,
2013-02-02 22:03:00,25.9,6.0,29.88,WSW,237,4.0,4.0,42,0.00,,CLR,0.04,VWS V14.00,2013-02-03 03:03:00,
2013-02-02 22:08:00,26.1,6.1,29.88,West,272,4.5,5.4,42,0.00,,CLR,0.04,VWS V14.00,2013-02-03 03:08:00,
2013-02-02 22:13:00,26.2,6.3,29.88,WNW,292,4.9,4.9,42,0.00,,CLR,0.04,VWS V14.00,2013-02-03 03:13:00,
2013-02-02 22:18:00,26.2,6.3,29.88,West,262,2.7,2.7,42,0.00,,CLR,0.04,VWS V14.00,2013-02-03 03:18:00,
2013-02-02 22:23:00,26.2,6.3,29.88,West,264,2.7,3.6,42,0.00,,CLR,0.04,VWS V14.00,2013-02-03 03:23:00,
2013-02-02 22:28:00,26.2,6.3,29.88,SW,226,3.6,5.8,42,0.00,,CLR,0.04,VWS V14.00,2013-02-03 03:28:00,
2013-02-02 22:33:00,26.1,6.6,29.88,WSW,247,0.0,3.6,43,0.00,,CLR,0.04,VWS V14.00,2013-02-03 03:33:00,
2013-02-02 22:38:00,26.1,6.6,29.88,SW,234,3.6,3.6,43,0.00,,CLR,0.04,VWS V14.00,2013-02-03 03:38:00,
2013-02-02 22:43:00,26.1,6.6,29.88,WSW,246,2.7,4.5,43,0.00,,CLR,0.04,VWS V14.00,2013-02-03 03:43:00,
2013-02-02 22:48:00,26.1,6.6,29.88,WSW,249,0.0,3.1,43,0.00,,CLR,0.04,VWS V14.00,2013-02-03 03:48:00,
2013-02-02 22:53:00,26.1,7.2,29.85,WSW,254,0.0,4.5,44,0.00,,CLR,0.04,VWS V14.00,2013-02-03 03:53:00,
2013-02-02 22:58:00,26.1,7.2,29.85,West,276,0.0,4.0,44,0.00,,CLR,0.04,VWS V14.00,2013-02-03 03:58:00,
2013-02-02 23:03:00,26.1,7.2,29.85,WSW,254,0.0,0.0,44,0.00,,CLR,0.04,VWS V14.00,2013-02-03 04:03:00,
2013-02-02 23:08:00,26.1,7.2,29.85,West,277,0.0,0.0,44,0.00,,CLR,0.04,VWS V14.00,2013-02-03 04:08:00,
2013-02-02 23:13:00,26.1,7.2,29.85,WSW,241,0.0,0.0,44,0.00,,CLR,0.04,VWS V14.00,2013-02-03 04:13:00,
2013-02-02 23:18:00,26.1,7.2,29.85,SW,221,0.0,0.0,44,0.00,,CLR,0.04,VWS V14.00,2013-02-03 04:18:00,
2013-02-02 23:23:00,26.1,7.6,29.85,West,262,0.0,0.0,45,0.00,,CLR,0.04,VWS V14.00,2013-02-03 04:23:00,
2013-02-02 23:28:00,26.1,7.6,29.85,WSW,245,0.0,0.0,45,0.00,,CLR,0.04,VWS V14.00,2013-02-03 04:28:00,
2013-02-02 23:33:00,25.9,7.5,29.85,WNW,289,0.0,3.1,45,0.00,,CLR,0.04,VWS V14.00,2013-02-03 04:33:00,
2013-02-02 23:38:00,25.9,7.5,29.85,SW,230,0.0,0.0,45,0.00,,CLR,0.04,VWS V14.00,2013-02-03 04:38:00,
2013-02-02 23:43:00,25.9,8.0,29.85,NE,35,0.0,0.0,46,0.00,,CLR,0.04,VWS V14.00,2013-02-03 04:43:00,
2013-02-02 23:48:00,25.9,8.0,29.85,NE,55,0.0,0.0,46,0.00,,CLR,0.04,VWS V14.00,2013-02-03 04:48:00,
2013-02-02 23:53:00,25.9,8.0,29.85,SW,222,0.0,0.0,46,0.00,,CLR,0.04,VWS V14.00,2013-02-03 04:53:00,
2013-02-02 23:58:00,25.9,8.0,29.85,WSW,255,2.7,3.6,46,0.00,,CLR,0.04,VWS V14.00,2013-02-03 04:58:00,